TimeEDT,TemperatureF,Dew PointF,Humidity,Sea Level PressureIn,VisibilityMPH,Wind Direction,Wind SpeedMPH,Gust SpeedMPH,PrecipitationIn,Events,Conditions,WindDirDegrees,DateUTC
12:53 AM,54.0,34.0,47,29.80,10.0,WSW,9.2,-,N/A,,Overcast,240,2013-10-22 04:53:00
1:53 AM,52.0,36.0,54,29.80,10.0,West,10.4,-,0.00,Rain,Light Rain,280,2013-10-22 05:53:00
2:27 AM,48.9,42.1,77,29.82,10.0,West,9.2,-,0.00,,Overcast,280,2013-10-22 06:27:00
2:53 AM,48.0,42.1,80,29.81,10.0,Variable,5.8,-,0.00,Rain,Light Rain,0,2013-10-22 06:53:00
3:00 AM,46.9,42.1,83,29.81,10.0,WSW,5.8,-,0.00,Rain,Light Rain,240,2013-10-22 07:00:00
3:37 AM,46.9,43.0,86,29.80,7.0,SW,5.8,-,0.02,Rain,Light Rain,220,2013-10-22 07:37:00
3:53 AM,46.0,43.0,89,29.79,8.0,Variable,4.6,-,0.03,Rain,Light Rain,0,2013-10-22 07:53:00
4:10 AM,46.0,43.0,89,29.79,9.0,SW,6.9,-,0.00,Rain,Light Rain,230,2013-10-22 08:10:00
4:48 AM,46.4,42.8,87,29.79,6.0,SW,6.9,-,0.02,Rain,Light Rain,230,2013-10-22 08:48:00
4:53 AM,46.0,43.0,89,29.78,6.0,WSW,8.1,-,0.02,Rain,Light Rain,240,2013-10-22 08:53:00
5:20 AM,46.0,43.0,89,29.78,6.0,Variable,5.8,-,0.04,Rain,Light Rain,0,2013-10-22 09:20:00
5:32 AM,46.0,42.1,86,29.79,5.0,WNW,13.8,20.7,0.06,Rain,Light Rain,300,2013-10-22 09:32:00
5:53 AM,43.0,39.0,86,29.80,8.0,NW,17.3,23.0,0.08,Rain,Light Rain,310,2013-10-22 09:53:00
6:53 AM,41.0,37.0,86,29.82,10.0,Variable,3.5,-,0.05,Rain,Light Rain,0,2013-10-22 10:53:00
7:26 AM,41.0,37.0,86,29.82,10.0,Variable,4.6,-,0.00,,Overcast,0,2013-10-22 11:26:00
7:45 AM,41.0,37.0,86,29.83,10.0,Variable,4.6,-,0.00,,Overcast,0,2013-10-22 11:45:00
7:53 AM,41.0,37.0,86,29.84,10.0,Variable,4.6,-,0.00,,Overcast,0,2013-10-22 11:53:00
8:06 AM,41.0,37.0,86,29.83,9.0,WSW,8.1,-,N/A,,Overcast,250,2013-10-22 12:06:00
8:36 AM,41.0,37.0,86,29.83,9.0,Variable,5.8,-,N/A,,Mostly Cloudy,0,2013-10-22 12:36:00
8:49 AM,41.0,35.6,81,29.84,9.0,WSW,9.2,-,N/A,,Mostly Cloudy,240,2013-10-22 12:49:00
8:53 AM,41.0,36.0,82,29.85,10.0,WSW,6.9,-,N/A,,Mostly Cloudy,250,2013-10-22 12:53:00
9:21 AM,42.1,36.0,79,29.84,10.0,WSW,8.1,17.3,N/A,,Mostly Cloudy,250,2013-10-22 13:21:00
9:53 AM,41.0,35.1,79,29.85,10.0,West,9.2,20.7,N/A,,Overcast,260,2013-10-22 13:53:00
10:04 AM,39.9,34.0,79,29.84,10.0,West,10.4,16.1,N/A,,Overcast,260,2013-10-22 14:04:00
10:44 AM,39.0,34.0,82,29.85,6.0,NW,15.0,21.9,0.00,Rain,Light Rain,310,2013-10-22 14:44:00
10:53 AM,37.0,33.1,86,29.87,6.0,WNW,13.8,-,0.00,Rain,Light Rain,300,2013-10-22 14:53:00
11:26 AM,37.0,33.1,86,29.86,10.0,WNW,10.4,-,0.00,,Overcast,290,2013-10-22 15:26:00
11:53 AM,37.9,34.0,86,29.88,10.0,WNW,8.1,-,0.00,,Overcast,290,2013-10-22 15:53:00
12:06 PM,39.0,34.0,82,29.87,10.0,WNW,9.2,-,N/A,,Overcast,290,2013-10-22 16:06:00
12:53 PM,44.1,30.9,60,29.86,10.0,WSW,13.8,19.6,N/A,,Mostly Cloudy,240,2013-10-22 16:53:00
1:53 PM,44.1,27.0,51,29.84,10.0,West,9.2,20.7,N/A,,Overcast,270,2013-10-22 17:53:00
2:53 PM,45.0,25.0,46,29.83,10.0,West,13.8,24.2,N/A,,Scattered Clouds,280,2013-10-22 18:53:00
3:53 PM,45.0,25.0,46,29.84,10.0,WNW,12.7,19.6,N/A,,Mostly Cloudy,300,2013-10-22 19:53:00
4:53 PM,45.0,24.1,44,29.84,10.0,West,8.1,20.7,N/A,,Mostly Cloudy,260,2013-10-22 20:53:00
5:53 PM,42.1,26.1,53,29.86,10.0,WNW,9.2,-,N/A,,Partly Cloudy,290,2013-10-22 21:53:00
6:53 PM,39.9,26.1,58,29.87,10.0,WNW,4.6,-,N/A,,Scattered Clouds,300,2013-10-22 22:53:00
7:53 PM,37.9,26.1,62,29.88,10.0,WNW,3.5,-,N/A,,Clear,300,2013-10-22 23:53:00
8:53 PM,34.0,26.1,73,29.88,10.0,Calm,Calm,-,N/A,,Clear,0,2013-10-23 00:53:00
9:53 PM,32.0,26.1,79,29.88,10.0,Calm,Calm,-,N/A,,Clear,0,2013-10-23 01:53:00
10:53 PM,33.1,26.1,75,29.88,10.0,Calm,Calm,-,N/A,,Clear,0,2013-10-23 02:53:00
11:53 PM,34.0,26.1,73,29.86,10.0,Calm,Calm,-,N/A,,Mostly Cloudy,0,2013-10-23 03:53:00